OKEAN-0
1 25860U 99039A 12243.78437126 .00000335 00000-0 58059-4 0 7216
2 25860 097.9446 204.9369 0001674 045.0031 315.1314 14.74276027705567
NOAA-16
1 26536U 00055A 12242.76352536 .00000003 00000-0 26291-4 0 08716
2 26536 099.0891 286.0006 0009926 234.1516 125.8729 14.12772260615424
NOAA-17
1 27453U 02032A 12242.70662522 -.00000023 00000-0 77754-5 0 08179
2 27453 098.3334 266.0189 0010927 304.7097 055.3035 14.24473753529225
NOAA-18
1 28654U 05018A 12242.77771265 .00000118 00000-0 89861-4 0 02991
2 28654 099.0531 201.5060 0013708 310.7125 049.2836 14.11691140374943
NOAA-19
1 33591U 09005A 12242.80216274 .00000238 00000-0 15553-3 0 04884
2 33591 098.8673 181.6920 0014128 169.6514 190.4953 14.11378045183398
HUBBLE
1 20580U 90037B 12241.12217144 .00000671 00000-0 36594-4 0 600
2 20580 028.4704 032.7181 0003386 103.9948 256.1080 15.02711964 25564
ISS
1 25544U 98067A 12243.89946671 .00007592 00000-0 13954-3 0 2140
2 25544 051.6478 109.6447 0015152 018.9022 073.7037 15.50185791789632
CO-58
1 28895U 05043F 12242.65426613 .00000423 00000-0 95881-4 0 02647
2 28895 097.9050 105.6624 0016740 282.2985 077.6334 14.60717163364382
FALCON
1 30776U 07006E 12242.95397257 .00003191 00000-0 20576-3 0 04389
2 30776 035.4309 186.1133 0002811 311.9306 048.1209 15.08014938301396
MAST
1 31126U 07012K 12242.98376590 .00000377 00000-0 94436-4 0 05567
2 31126 097.8754 249.7750 0092649 240.5056 118.6877 14.54234786284995
CAPE1
1 31130U 07012P 12242.59887605 .00000378 00000-0 96340-4 0 5548
2 31130 097.8847 245.7567 0100027 255.4623 103.5447 14.53039405284435
COMPASS
1 32787U 08021E 12243.77117322 .00001091 00000-0 13632-3 0 3959
2 32787 097.7957 303.4413 0015242 171.6870 188.4580 14.84245610234878
AAUSAT2
1 32788U 08021F 12242.71310670 .00001186 00000-0 14650-3 0 3871
2 32788 097.7966 302.8309 0014909 175.6753 184.4599 14.84583292234742
DO-64
1 32789U 08021G 12243.69241781 .00003070 00000-0 35462-3 0 4044
2 32789 097.8068 306.1041 0014881 168.9178 191.2327 14.86251387234948
CO-66
1 32791U 08021J 12242.64470217 .00000849 00000-0 10907-3 0 03855
2 32791 097.7935 302.0193 0015379 176.4393 183.6897 14.83615643234631
RS-30
1 32953U 08025A 12243.58040114 .00000010 00000-0 00000 0 0 1017
2 32953 082.4971 248.8735 0019537 141.9334 218.3130 12.43027077193804
PHARMSAT
1 35002U 09028B 12226.86484473 .07728342 73476-5 57159-3 0 789
2 35002 040.4341 050.6671 0012079 300.9773 059.0492 16.39309245183554
METEOR-M
1 35865U 09049A 12243.81167309 -.00000027 00000-0 75987-5 0 7322
2 35865 098.6475 296.7108 0002112 177.5261 182.5927 14.21867748153209
RS-38
1 35869U 09049E 12243.68092697 .00000006 00000-0 22129-4 0 7301
2 35869 098.6427 296.5658 0004223 187.4762 172.6354 14.22083793153204
JUGNU
1 37839U 11058B 12242.45052923 .00000620 00000-0 19019-3 0 02170
2 37839 019.9629 274.3908 0018983 312.0553 047.8219 14.12075531045615
SRMSAT
1 37841U 11058D 12242.46328872 .00000264 00000-0 00000-0 0 02196
2 37841 019.9720 280.6240 0012121 274.0380 085.8689 14.10156374045551
RAX-2
1 37853U 11061D 12242.93037434 .00005550 00000-0 44014-3 0 02847
2 37853 101.7073 316.7042 0245732 140.6567 221.2771 14.80501486045314
AUBIESAT
1 37854U 11061E 12242.93262894 .00006183 00000-0 48105-3 0 02790
2 37854 101.7114 317.0564 0246628 139.8203 222.1527 14.80939734045305
HRBE
1 37855U 11061F 12242.88649180 .00005537 00000-0 43330-3 0 02845
2 37855 101.7096 316.9188 0247095 140.1732 221.7883 14.80762158045298
RS-39
1 38051U 11062C 12243.83293256 .00006677 00000-0 27349-3 0 6561
2 38051 051.6382 163.8408 0012138 310.0470 116.4304 15.25401498 33367
E-STAR
1 38079U 12006C 12243.70875091 .00031219 00000-0 76351-3 0 4687
2 38079 069.4813 144.8086 0724004 153.7464 210.2375 14.19175023 28146
GOLIAT
1 38085U 12006J 12243.68326583 .00031203 00000-0 75142-3 0 4374
2 38085 069.4852 145.4003 0730509 154.2104 209.7534 14.18105863 28128
HORYU-2
1 38340U 12025D 12242.88211159 .00000941 00000-0 16470-3 0 1182
2 38340 098.1781 182.7949 0014042 096.3926 263.8900 14.70115456 15301
RS-40
1 38736U 12041D 12243.70058713 .00000010 00000-0 00000 0 0 359
2 38736 082.4816 336.2415 0017785 239.6149 120.3173 12.42646187 4163
